Location: Newark
(53.3333°N, 83.7500°E)
Time: 11:14:34
(UTC+00:00)

A-11 Canister half - Visible Passes

Search period start: 20 November 2019 00:00
Search period end: 30 November 2019 00:00
Orbit: 1527 x 1682 km, 47.3° (Epoch: 19 November)

Date Brightness Start Highest point End Pass type
(mag) Time Alt. Az. Time Alt. Az. Time Alt. Az.
20 Nov 10.8 12:33:16 10° W 12:40:44 26° SW 12:48:03 10° S visible
21 Nov 10.8 12:11:33 10° W 12:19:12 28° SW 12:26:40 10° SSE visible
22 Nov 10.8 11:49:51 10° W 11:57:39 29° SW 12:05:16 10° SSE visible
23 Nov 10.8 11:28:08 10° W 11:36:06 30° SW 11:43:52 10° SSE visible
24 Nov 10.9 11:06:27 10° W 11:14:33 31° SW 11:22:27 10° SSE visible
25 Nov 10.9 10:44:45 10° W 10:52:59 32° SW 11:01:02 10° SSE visible
26 Nov 11.8 12:32:35 10° WSW 12:33:52 10° WSW 12:35:11 10° SW visible
27 Nov 11.8 12:09:51 10° WSW 12:12:23 11° WSW 12:14:55 10° SW visible
28 Nov 12.2 01:30:30 10° SE 01:33:32 12° ESE 01:36:33 10° ESE visible
28 Nov 11.8 11:47:33 10° WSW 11:50:53 12° WSW 11:54:11 10° SW visible
29 Nov 12.2 01:09:53 10° SE 01:12:01 11° ESE 01:14:08 10° ESE visible
29 Nov 11.9 11:25:26 10° W 11:29:23 13° SW 11:33:17 10° SSW visible
